Regional Weather Roundup
Issued by NWS

Home | Current Version | Previous Version | Text Only | Print | Product List | Glossary Off
Versions: 1 2 3 4 5 6 7 8 9 10 11 12 13 14 15 16 17 18 19 20 21 22 23 24 25 26 27 28 29 30 31 32 33 34 35 36 37 38 39 40 41 42 43 44 45 46 47 48 49 50

000
ASUS43 KFSD 250810
RWRSD

WEATHER ROUNDUP FOR SOUTH DAKOTA
NATIONAL WEATHER SERVICE SIOUX FALLS SD
200 AM CST SUN JAN 25 2015

NOTE: "FAIR" INDICATES FEW OR NO CLOUDS BELOW 12,000 FEET WITH NO
SIGNIFICANT WEATHER AND/OR OBSTRUCTIONS TO VISIBILITY.


SDZ001>005-009-010-012>017-250900-
NORTHWEST AND NORTH CENTRAL SOUTH DAKOTA

CITY           SKY/WX    TMP DP  RH WIND       PRES   REMARKS
BUFFALO          N/A     33  26  75 NW20      29.92R WCI  21
FAITH            N/A     33  28  81 W13       29.95R WCI  24
MOBRIDGE       CLOUDY    39  34  82 NW14      29.84R
$$

SDZ012>016-024>037-041>051-057-063-072>074-250900-
SOUTHWEST AND SOUTH CENTRAL SOUTH DAKOTA

CITY           SKY/WX    TMP DP  RH WIND       PRES   REMARKS
RAPID CTY ARPT CLEAR     38  23  55 NW21      29.99R
PIERRE         CLOUDY    38  33  82 NW17      29.87R
CUSTER         CLEAR     33  10  38 NW10G25   29.98S WCI  25
ELLSWORTH AFB  CLEAR     37  25  60 NW21G26   29.99R
PHILIP         CLOUDY    39  30  70 NW16      29.95S
PINE RIDGE     CLEAR     29  22  75 W5        30.00R WCI  24
WINNER         CLOUDY    40  35  83 NW25G32   29.87R
$$

SDZ004>011-016>023-039-040-250900-
NORTHEAST SOUTH DAKOTA

CITY           SKY/WX    TMP DP  RH WIND       PRES   REMARKS
ABERDEEN       LGT SNOW  30  27  88 N13       29.85R FOG     WCI  20
WATERTOWN      CLOUDY    32  30  92 N17       29.77R WCI  21
SISSETON         N/A     30  30 100 N15       29.82R WCI  19
$$

SDZ017-020-022-023-036>040-048>070-250900-
SOUTHEAST SOUTH DAKOTA

CITY           SKY/WX    TMP DP  RH WIND       PRES   REMARKS
SIOUX FALLS    LGT SNOW  33  31  92 N16       29.72R FOG     WCI  23
HURON          CLOUDY    32  30  92 N16       29.83R WCI  21
CHAMBERLAIN    CLOUDY    35  33  94 N14       29.86R WCI  25
MITCHELL       CLOUDY    33  31  92 N20       29.82R WCI  21
YANKTON        CLOUDY    34  30  86 NW24G30   29.76R WCI  21
$$

ABBREVIATIONS USED IN REMARKS
   TC - TEMPERATURE IN CELSIUS
  WCI - WIND CHILL INDEX
   HX - HEAT INDEX
  VSB - VISIBILITY




USA.gov is the U.S. government's official web portal to all federal, state and local government web resources and services.